Regional Weather Roundup
Issued by NWS Charleston, SC

Home | Current Version | Previous Version | Text Only | Print | Product List | Glossary On
Versions: 1 2 3 4 5 6 7 8 9 10 11 12 13 14 15 16 17 18 19 20 21 22 23 24 25 26 27 28 29 30 31 32 33 34 35 36 37 38 39 40 41 42 43 44 45 46 47 48 49 50
000
ASUS42 KCHS 292128
RWRCHS

REGIONAL WEATHER ROUNDUP
NATIONAL WEATHER SERVICE CHARLESTON SC
500 PM EDT FRI JUL 29 2016

NOTE: "FAIR" INDICATES FEW OR NO CLOUDS BELOW 12,000 FEET WITH NO
SIGNIFICANT WEATHER AND/OR OBSTRUCTIONS TO VISIBILITY.

NOT ALL STATIONS ARE QUALITY CONTROLLED. USE DATA WITH CAUTION...
ESPECIALLY DEWPOINT OBSERVATIONS.

SCZ027-030-031-034>040-042>050-292200-
...SOUTHEAST SOUTH CAROLINA...

CITY           SKY/WX    TMP DP  RH WIND       PRES   REMARKS
N CHARLESTON   MOSUNNY   99  69  37 SW12      29.91F HX 105
WATERFRONT PRK   N/A     94  74  52 SW7       29.92F HX 104
MOUNT PLEASANT FAIR      93  81  66 S20       29.92S HX 113
JOHNS ISLAND   FAIR      91  81  70 S14G24    29.93S HX 110
PINOPOLIS        N/A     93  72  49 W10       29.83F HX 100
MONCKS CORNER  FAIR      93  63  36 W6        29.91S HX  94
SUMMERVILLE    NOT AVBL
BEAUFORT MCAS  MOSUNNY  100  66  32 SW15      29.93F HX 104
BEAUFORT ARPT  FAIR      95  73  49 S8G17     29.93S HX 105
HILTON HEAD IS MOSUNNY   95  79  59 S12G23    29.95F HX 112
WALTERBORO     PTCLDY    99  63  30 W12       29.93S HX 100
ALLENDALE      FAIR      97  68  38 VRB7G15   29.92S HX 101

...SOUTHERN MIDLANDS AND PEE DEE...

CITY           SKY/WX    TMP DP  RH WIND       PRES   REMARKS
GEORGETOWN     FAIR      95  68  41 W13       29.91S HX  99
KINGSTREE      FAIR      95  68  41 SW6       29.90S HX  99
ORANGEBURG     MOSUNNY   97  68  38 W14       29.92S HX 102
BARNWELL       NOT AVBL
AIKEN          FAIR      95  64  36 W10G21    29.96S HX  97
MANNING        FAIR      95  68  41 W9        29.90S HX  99
COLUMBIA       PTSUNNY   97  68  38 VRB7      29.89F HX 102
SUMTER         LGT RAIN  84  72  65 S10G30    29.88S
FLORENCE       MOSUNNY   96  70  42 W13       29.90F HX 102
MYRTLE BEACH   MOSUNNY   97  70  41 W9        29.91F HX 103
N MYRTLE BEACH MOSUNNY   95  72  47 VRB7      29.90F HX 103

$$

GAZ063-065-086>088-099>101-113>116-118-119-134>141-150-292200-
...SOUTHEAST GEORGIA...

CITY           SKY/WX    TMP DP  RH WIND       PRES   REMARKS
SAVANNAH ARPT  MOSUNNY   97  66  36 W9        29.94F HX 100
HUNTER AAF     MOSUNNY   96  80  58 S5        29.92F HX 116
FORT STEWART   MOSUNNY   98  66  34 VRB5      29.91F HX 102
STATESBORO     SUNNY     98  69  39 NW9       29.93F HX 104
SYLVANIA       NOT AVBL
CLAXTON        FAIR      99  67  35 SW7       29.93F HX 104

...CSRA...CENTRAL AND FAR SOUTHEAST GEORGIA...

CITY           SKY/WX    TMP DP  RH WIND       PRES   REMARKS
THOMSON        NOT AVBL
AUGUSTA-BUSH   MOSUNNY   99  65  32 W12G24    29.91F HX 102
AUGUSTA-DANIEL MOSUNNY   96  67  38 W10G17    29.94F HX 100
SWAINSBORO     FAIR      97  64  34 W8G16     29.95F HX  99
VIDALIA        MOSUNNY  100  63  28 W10       29.94F HX 102
EASTMAN        FAIR      98  43  15 SW7G17    29.98F HX  94
HAZLEHURST     FAIR     100  66  33 W7        29.94F HX 103
ALMA           MOSUNNY   97  66  36 W5        29.96F HX 100
WAYCROSS       SUNNY    101  71  37 W13G21    29.95F HX 110
JESUP          FAIR     100  72  39 NW7       29.94F HX 109
BAXLEY         FAIR      99  70  39 W7        29.95F HX 105
BRUNSWICK      PTSUNNY   99  72  41 SW13      29.96S HX 107
SAINT SIMONS   SUNNY     93  77  59 S13G21    29.96S HX 107

$$

SCZ027-028-034-036>038-045-046-048>050-GAZ119-141-292200-
...LAKE AND SUPPLEMENTAL COASTAL OBSERVATIONS...

STATION/POSITION TIME  TEMP    WIND        PRES    WAVE   SWELL
                       AIR SEA DIR/SP/G            HT/PER HT/PER/DIR
                 (UTC) (F)     (DEG/KT/KT) (MB)    (FT/S) (FT/S/D)
WINYAH BAY       2045   95     260/  9     1012.0S
LAKE MURRAY      2000   92     260/ 10/ 14 1012.2F
ACE BASIN NERRS  2000   96     240/  3     1014.0S
FORT PULASKI     2100   89 88  170/  7/ 15 1014.4F
SAPELO ISLAND    2100   94     160/ 10     1014.0F

$$

ANZ835-935-AMZ111-154-330-350-352-354-370-450-454-472-292200-
...C-MAN AND BUOY OBSERVATIONS...

STATION/POSITION TIME  TEMP    WIND        PRES    WAVE   SWELL
                       AIR SEA DIR/SP/G            HT/PER HT/PER/DIR
                 (UTC) (F)     (DEG/KT/KT) (MB)    (FT/S) (FT/S/D)
BUOY 41004       2050   86 86  210/ 17/ 21 1013.2F   3/ 5   2/150/ 8
BUOY 41008       2050   87 87  160/ 16/ 17 1014.2F   2/ 5
FOLLY BEACH CMAN 2100   87     200/ 16/ 19 1013.7F
CAPERS NEARSHORE 2008   86 85  220/ 17/ 23 1013.2F
FRIPP NEARSHORE  2108   87 88  200/ 17/ 23 1013.1F


STATION/POSITION TIME  TEMP    WIND        PRES    WAVE   SWELL
                       AIR SEA DIR/SP/G            HT/PER HT/PER/DIR
                 (UTC) (F)     (DEG/KT/KT) (MB)    (FT/S) (FT/S/D)
5E ST. MARYS GA  2101      87                N/A     2/ 4
FRYING PAN BUOY  2100   86 85  220/ 16/ 17 1012.8F
BUOY 41025       2050   87 85  230/ 17/ 21 1011.8S   3/ 6   2/ 10/ 9
CAPE LOOKOUT NC  2100   86     230/ 12/ 18 1011.9R
BUOY 41002       2050   85 86  240/ 10/ 12 1015.5F   4/ 6   3/280/ 6
BUOY 41010       2020   86 87  280/  6/  8 1016.9F
ST AUGUSTINE FL  2100   85 87  130/ 12/ 13 1016.5F


$$




USA.gov is the U.S. government's official web portal to all federal, state and local government web resources and services.